Wind_Speed
37 32 32 28 27 31 29 22 19 13 11 16 19 21 26 33 30 20 15 18 21 28 18 22 50 64 59 56 56 56 52 50 51 59 55 59 54 56 61 63 60 66 65 67
36 38 32 27 27 34 34 25 21 15 11 16 20 21 25 33 31 29 20 17 19 24 22 20 25 55 66 62 63 62 57 58 57 58 59 61 58 57 64 62 68 72 73 74
41 43 31 29 30 33 34 27 20 17 12 13 17 23 24 27 30 30 25 21 17 16 19 20 19 25 41 60 74 67 69 63 59 57 57 63 60 73 69 69 72 69 68 68
43 44 32 30 36 34 36 29 24 21 14 12 16 19 23 24 28 30 30 26 19 15 15 21 23 22 24 27 33 51 68 70 69 68 64 63 56 55 60 70 70 67 67 70
47 46 36 24 37 33 34 31 30 24 17 19 19 18 23 24 24 25 29 28 24 17 14 15 21 24 20 22 23 22 26 35 44 49 52 57 51 42 42 42 52 66 67 55
45 46 36 34 35 35 40 25 30 25 24 26 19 21 18 24 22 22 26 29 27 23 18 14 16 20 26 21 20 21 20 23 25 27 30 30 31 31 31 34 37 40 43 46
52 50 46 41 37 36 35 39 31 26 30 29 20 23 20 24 20 20 20 24 31 29 22 18 15 15 22 27 25 27 24 22 21 24 27 28 25 27 30 32 35 35 37 39
50 48 48 45 44 43 34 32 30 31 30 28 19 22 20 24 20 21 20 21 26 32 30 23 19 16 13 22 29 25 27 29 27 27 25 25 26 27 30 31 33 38 39 42
55 53 52 50 50 45 40 36 36 28 30 28 25 25 30 24 25 21 20 21 20 26 29 32 24 18 16 14 24 35 32 29 28 32 33 35 34 32 34 38 40 40 42 42
58 55 55 55 52 48 46 44 38 33 29 32 30 31 31 24 25 21 21 25 25 22 25 27 28 25 18 14 16 20 32 40 38 36 34 34 36 37 39 37 38 40 42 43
56 58 57 58 52 53 51 48 45 44 36 32 35 35 35 28 27 22 23 23 28 29 24 26 27 30 25 18 15 15 19 23 31 46 41 39 40 40 41 43 46 47 49 48
61 57 55 58 55 54 52 51 49 40 40 34 34 41 42 31 32 26 25 26 29 28 28 24 26 24 25 21 21 18 16 20 23 25 34 42 46 49 50 52 49 48 47 47
64 59 61 64 58 51 47 49 50 48 46 41 40 39 45 38 38 30 27 29 29 29 27 27 24 26 25 24 23 22 18 16 17 24 27 31 34 37 39 38 37 38 41 40
70 63 66 67 67 64 57 53 52 52 47 45 39 42 49 42 39 39 35 31 30 33 28 26 26 26 26 29 30 29 24 21 18 16 20 27 29 31 34 36 37 36 34 37
68 66 69 67 67 63 54 57 59 51 53 50 49 48 50 49 44 42 40 35 31 33 36 31 26 26 27 30 29 35 34 28 25 22 19 19 19 20 25 29 30 33 36 41
73 72 65 69 64 60 56 61 60 57 56 51 53 51 48 49 48 47 44 41 36 36 39 38 33 32 28 32 29 28 35 32 30 28 25 24 25 24 25 27 29 32 30 34
77 78 78 75 72 70 71 71 70 63 62 59 57 57 56 53 55 53 50 47 45 38 43 43 37 36 36 36 28 27 30 32 33 33 33 31 26 26 29 30 31 32 30 32
82 80 80 79 77 75 78 76 73 64 64 64 62 61 60 58 60 58 52 50 54 48 47 47 43 43 42 42 39 37 37 35 35 31 34 36 35 30 30 33 37 38 40 42
71 72 68 71 77 71 68 73 64 63 61 65 62 60 63 65 64 55 55 51 56 59 52 49 45 46 46 45 43 44 42 37 41 43 40 39 41 40 40 36 37 40 45 49
75 72 69 66 67 60 62 66 66 68 59 68 64 64 63 66 62 62 63 60 58 61 59 56 52 47 47 50 52 47 46 48 48 48 49 48 49 50 51 51 48 50 50 50
90 89 89 84 89 81 74 72 74 75 73 77 73 70 68 66 67 66 69 66 63 60 63 64 61 57 56 54 54 56 56 55 54 53 55 54 56 53 51 55 58 59 58 59
101 98 95 91 90 85 88 89 90 88 81 77 76 73 71 68 66 69 73 70 69 67 65 62 64 67 62 60 61 65 64 62 60 60 61 56 57 57 59 63 65 62 64 67
87 89 91 90 90 90 93 95 97 99 98 94 88 87 79 77 75 71 69 70 73 76 76 73 69 69 66 67 67 69 72 70 67 68 67 62 63 65 68 70 73 73 74 75
79 81 81 80 82 82 84 87 95 99 104 106 97 94 97 94 91 85 81 78 76 81 80 76 71 75 71 72 73 70 72 72 73 74 77 78 78 78 79 79 75 75 78 80
75 77 79 77 78 78 80 78 80 84 87 94 98 103 104 98 97 93 93 91 89 88 86 84 83 81 77 78 74 77 77 76 78 79 79 76 76 76 76 79 82 83 83 86
72 75 75 74 74 76 80 77 78 81 80 82 85 89 96 103 101 102 100 99 96 94 93 92 90 87 86 86 86 82 84 81 79 84 86 83 85 85 87 89 90 90 89 90
Wind_Direction
252 253 261 275 258 253 259 258 263 304 339 349 352 360 9 4 4 346 308 277 260 251 287 254 235 232 234 241 235 234 231 239 239 236 242 243 251 260 258 261 260 256 253 255
249 247 258 263 252 251 258 262 262 288 312 339 357 353 4 6 5 352 333 316 279 259 275 266 242 235 231 244 245 239 234 244 241 242 244 246 251 253 259 262 261 259 258 262
243 243 250 249 249 247 253 258 257 278 298 322 347 345 356 5 6 356 349 334 321 279 267 262 249 240 238 237 240 244 243 241 247 251 247 247 252 251 256 252 258 258 260 264
240 242 237 241 248 248 254 253 256 262 282 306 330 336 343 358 359 359 359 351 329 310 280 269 253 246 245 231 236 242 244 245 247 251 253 253 254 253 251 248 246 250 255 262
230 236 229 239 246 247 252 250 256 256 277 290 310 331 338 347 350 359 0 1 349 326 305 283 258 246 239 239 248 253 244 240 243 244 245 243 244 245 246 249 252 253 257 260
234 236 232 234 241 246 248 251 252 266 268 280 294 315 326 331 341 356 6 0 358 351 327 311 274 252 238 238 233 236 244 245 238 230 237 241 240 239 241 242 247 250 253 258
233 232 228 230 241 245 250 252 253 263 270 279 286 291 315 320 327 340 350 357 359 357 354 332 315 263 251 246 242 239 235 237 248 236 232 227 230 235 236 236 236 241 244 245
234 233 234 232 236 240 252 259 260 258 258 266 281 276 302 309 318 324 332 344 348 358 359 1 345 317 276 251 242 243 249 247 245 240 234 232 234 234 236 239 243 245 253 256
234 235 237 239 237 237 242 252 253 267 256 251 265 262 283 294 300 313 321 327 341 348 357 358 355 350 320 287 254 244 245 251 251 248 245 251 250 247 249 255 257 258 267 269
235 235 243 243 244 246 252 249 255 262 257 245 256 259 266 282 286 299 305 321 325 336 340 346 354 352 346 323 288 267 252 246 243 247 250 255 253 254 259 257 262 268 274 273
233 234 243 242 247 246 245 249 252 253 262 248 255 261 259 276 270 282 290 308 318 321 328 338 341 345 344 343 328 294 274 259 256 245 247 251 254 260 259 264 269 272 275 273
237 235 239 244 244 245 245 249 252 255 256 252 252 259 263 266 261 269 276 290 307 311 310 318 327 334 344 345 348 329 304 280 267 256 249 252 257 261 264 268 272 276 275 275
233 239 235 239 240 242 248 245 248 244 248 252 245 254 258 259 252 261 266 276 295 292 297 304 312 320 325 330 335 334 331 310 285 271 264 260 263 264 263 266 267 272 271 275
231 231 233 239 239 247 250 241 243 248 243 244 249 247 260 256 252 257 263 271 281 279 278 284 299 303 310 317 319 328 323 329 316 298 274 264 268 273 274 274 272 273 279 283
235 238 237 242 250 252 252 241 245 252 244 247 249 246 258 260 256 256 257 265 274 262 274 274 281 284 293 301 311 316 319 310 319 318 311 304 297 293 284 283 286 286 282 283
232 233 239 241 239 243 241 244 247 256 252 250 247 243 251 257 256 252 243 260 269 271 265 266 270 276 275 288 299 304 308 309 305 305 312 312 310 312 309 304 298 296 289 287
237 239 241 245 240 242 243 250 249 253 248 251 250 247 243 250 252 250 252 260 261 263 258 260 265 270 273 279 281 287 285 291 291 293 303 302 301 298 298 297 296 295 290 287
237 239 241 242 243 241 246 249 249 246 247 250 247 246 249 244 249 248 257 259 255 256 255 255 259 266 267 271 274 281 286 283 273 273 286 293 291 288 292 291 292 294 293 291
237 240 242 240 242 243 241 241 242 242 246 250 248 245 246 247 243 252 255 255 255 252 254 253 255 261 267 270 271 279 279 275 273 276 273 278 286 278 279 290 297 292 293 290
238 238 240 244 248 242 238 241 242 244 244 248 247 247 248 247 248 247 253 254 254 253 261 257 255 260 265 263 266 271 268 272 280 276 274 275 282 289 280 282 285 292 294 291
237 238 242 240 239 239 241 245 246 246 242 247 253 247 246 248 250 248 251 254 253 253 256 259 260 259 266 266 263 269 270 274 279 275 277 279 284 284 278 278 284 291 296 296
241 244 245 242 240 236 241 245 245 244 244 245 251 249 245 247 250 252 251 253 256 257 257 258 261 261 263 265 268 267 273 273 273 275 278 281 278 275 276 280 284 288 292 294
243 244 244 245 247 244 239 239 243 246 247 245 245 248 246 244 245 248 252 254 255 254 255 258 260 259 261 264 270 266 269 274 273 272 272 270 276 281 282 282 285 284 289 292
245 247 247 247 247 246 245 243 243 243 248 248 247 249 250 249 250 248 249 250 252 254 255 256 258 261 265 266 269 268 273 274 270 270 274 272 274 278 280 284 284 287 289 290
244 245 246 246 246 247 247 244 245 245 244 246 247 248 249 249 250 250 250 250 253 254 256 258 260 263 262 267 268 266 268 269 270 271 273 274 276 276 278 279 281 285 284 285
244 245 246 245 245 244 246 247 244 243 244 245 244 245 250 253 250 251 252 253 255 255 258 261 261 263 265 268 271 270 266 268 266 267 270 271 272 272 275 278 280 282 281 284
Height
10614 10617 10618 10621 10621 10623 10626 10628 10629 10629 10627 10624 10621 10617 10613 10607 10600 10597 10595 10593 10594 10595 10597 10597 10600 10603 10608 10613 10617 10622 10626 10627 10630 10635 10639 10642 10645 10645 10649 10652 10656 10657 10659 10660
10608 10607 10611 10615 10615 10617 10620 10622 10624 10624 10623 10621 10617 10614 10610 10605 10597 10597 10593 10590 10588 10589 10589 10590 10591 10596 10602 10604 10607 10613 10619 10621 10623 10629 10633 10635 10636 10639 10640 10643 10642 10647 10649 10649
10596 10596 10604 10607 10609 10610 10612 10615 10619 10619 10619 10617 10615 10612 10608 10604 10600 10598 10593 10588 10584 10582 10583 10585 10588 10591 10593 10596 10599 10603 10609 10614 10616 10618 10623 10625 10626 10629 10631 10633 10632 10635 10638 10639
10587 10589 10596 10599 10601 10604 10605 10609 10612 10614 10614 10613 10611 10611 10608 10603 10600 10597 10593 10588 10583 10579 10578 10579 10581 10584 10586 10588 10591 10594 10597 10603 10608 10609 10611 10614 10615 10617 10617 10622 10624 10627 10628 10630
10576 10578 10587 10592 10592 10597 10596 10606 10605 10608 10609 10609 10608 10607 10605 10602 10600 10596 10592 10588 10584 10578 10576 10575 10575 10577 10580 10582 10585 10587 10589 10593 10595 10598 10601 10603 10607 10610 10612 10613 10615 10618 10622 10624
10565 10569 10580 10582 10584 10589 10589 10597 10597 10602 10604 10604 10605 10602 10601 10601 10598 10595 10591 10588 10584 10579 10574 10572 10572 10573 10575 10577 10580 10583 10584 10585 10588 10591 10593 10595 10596 10599 10602 10604 10605 10607 10611 10614
10550 10558 10565 10572 10576 10579 10583 10589 10593 10596 10598 10599 10601 10597 10596 10597 10596 10593 10591 10588 10583 10579 10575 10571 10569 10569 10571 10573 10574 10577 10579 10581 10584 10585 10587 10588 10591 10593 10595 10597 10599 10601 10602 10603
10541 10550 10555 10562 10564 10569 10577 10582 10587 10588 10591 10593 10596 10593 10594 10592 10593 10591 10589 10586 10583 10580 10574 10569 10567 10566 10565 10567 10570 10571 10574 10577 10579 10581 10581 10582 10584 10586 10587 10589 10591 10592 10593 10595
10530 10540 10544 10550 10553 10562 10568 10573 10575 10582 10584 10586 10590 10588 10589 10586 10588 10587 10586 10585 10583 10579 10576 10572 10567 10565 10563 10563 10564 10566 10568 10570 10571 10573 10576 10578 10580 10581 10583 10585 10584 10584 10585 10584
10522 10530 10533 10538 10545 10554 10560 10564 10569 10574 10577 10578 10581 10584 10581 10582 10580 10583 10581 10582 10580 10577 10575 10572 10568 10564 10561 10560 10558 10559 10560 10562 10564 10566 10568 10569 10571 10574 10575 10573 10574 10574 10575 10575
10511 10519 10521 10528 10536 10542 10548 10554 10559 10563 10569 10572 10574 10576 10575 10578 10574 10574 10575 10575 10576 10574 10572 10570 10567 10564 10561 10558 10556 10554 10554 10554 10554 10558 10560 10561 10562 10563 10564 10564 10565 10565 10566 10563
10493 10502 10508 10516 10521 10528 10536 10542 10548 10556 10561 10564 10566 10567 10564 10571 10571 10567 10567 10567 10568 10569 10568 10566 10564 10562 10561 10558 10554 10551 10550 10549 10548 10549 10550 10551 10552 10552 10553 10553 10556 10556 10554 10554
10483 10495 10498 10504 10512 10518 10525 10530 10535 10542 10547 10555 10557 10557 10552 10560 10561 10562 10561 10560 10561 10561 10562 10561 10559 10558 10556 10556 10555 10551 10547 10546 10544 10541 10541 10542 10542 10542 10543 10545 10546 10545 10544 10542
10471 10482 10489 10493 10497 10503 10512 10519 10525 10530 10539 10543 10549 10547 10541 10548 10553 10554 10555 10556 10555 10553 10554 10555 10554 10552 10550 10549 10548 10547 10545 10542 10539 10538 10536 10535 10534 10534 10533 10533 10533 10532 10531 10529
10459 10469 10475 10478 10480 10489 10501 10507 10511 10519 10525 10531 10535 10538 10533 10536 10542 10546 10546 10547 10549 10546 10544 10545 10546 10546 10545 10543 10540 10539 10539 10538 10535 10532 10529 10528 10526 10526 10524 10523 10522 10521 10520 10519
10445 10454 10461 10465 10470 10479 10490 10491 10495 10502 10509 10516 10522 10526 10525 10524 10529 10532 10536 10538 10539 10540 10536 10535 10536 10537 10537 10537 10535 10532 10531 10531 10529 10527 10524 10522 10520 10517 10515 10514 10514 10513 10511 10510
10428 10437 10444 10452 10459 10463 10469 10473 10480 10486 10494 10500 10507 10512 10511 10514 10516 10519 10522 10526 10529 10530 10528 10526 10527 10527 10527 10527 10527 10526 10525 10522 10521 10519 10517 10517 10515 10512 10511 10509 10507 10505 10503 10502
10410 10419 10425 10431 10438 10448 10450 10452 10460 10474 10480 10484 10490 10495 10499 10501 10500 10505 10512 10514 10516 10517 10517 10517 10519 10519 10518 10516 10517 10516 10517 10517 10515 10512 10510 10509 10508 10506 10504 10502 10500 10497 10494 10491
10391 10396 10404 10409 10420 10434 10439 10433 10445 10455 10465 10466 10473 10479 10485 10489 10491 10499 10497 10500 10502 10502 10504 10505 10506 10507 10508 10508 10506 10505 10505 10505 10505 10504 10503 10500 10498 10496 10495 10493 10491 10488 10485 10482
10371 10380 10385 10398 10403 10416 10424 10422 10430 10437 10456 10442 10454 10461 10466 10469 10480 10484 10478 10481 10485 10489 10492 10494 10495 10496 10495 10495 10496 10493 10490 10490 10491 10491 10491 10489 10487 10486 10482 10479 10477 10475 10471 10467
10350 10358 10366 10378 10380 10402 10411 10406 10410 10417 10431 10426 10432 10440 10445 10452 10459 10464 10463 10465 10469 10475 10476 10479 10481 10481 10481 10480 10479 10480 10478 10477 10477 10477 10475 10475 10472 10470 10467 10464 10461 10457 10454 10450
10329 10337 10345 10351 10360 10387 10388 10386 10388 10391 10404 10409 10410 10418 10431 10439 10442 10448 10449 10451 10454 10458 10462 10464 10466 10466 10466 10465 10465 10463 10463 10463 10462 10462 10459 10458 10455 10451 10450 10448 10445 10440 10436 10432
10308 10314 10322 10332 10344 10355 10365 10367 10367 10368 10377 10386 10398 10398 10409 10414 10421 10429 10434 10439 10439 10441 10443 10447 10449 10449 10451 10451 10450 10449 10447 10447 10447 10445 10443 10441 10438 10434 10431 10429 10426 10422 10418 10413
10290 10295 10304 10313 10320 10326 10331 10339 10345 10357 10363 10364 10373 10381 10385 10392 10400 10410 10414 10418 10419 10420 10423 10428 10430 10432 10436 10435 10434 10434 10431 10429 10427 10427 10426 10423 10419 10417 10414 10410 10407 10404 10399 10393
10270 10276 10282 10294 10300 10303 10304 10314 10326 10331 10338 10341 10349 10354 10357 10368 10376 10384 10390 10394 10398 10400 10403 10408 10412 10415 10414 10414 10417 10415 10411 10410 10411 10410 10407 10405 10403 10400 10396 10392 10387 10383 10378 10372
10252 10254 10261 10269 10276 10282 10283 10291 10300 10305 10315 10322 10327 10332 10334 10335 10347 10357 10368 10373 10378 10381 10383 10385 10387 10393 10392 10393 10393 10394 10391 10390 10391 10389 10387 10384 10382 10378 10375 10371 10366 10360 10355 10350